Weather History for Cedar Rapids, IA

Change the Weather History Date:

Monday, October 7, 2013

  Actual Average Record
Temperature  
Mean Temperature 57 °F 54 °F  
Max Temperature 73 °F 66 °F 89 °F (1916)
Min Temperature 41 °F 42 °F 23 °F (2000)
Degree Days  
Heating Degree Days 8 12  
Month to date heating degree days 36 75  
Since 1 July heating degree days 135 232  
Cooling Degree Days 0 1  
Month to date cooling degree days 19 7  
Year to date cooling degree days 884 747  
Growing Degree Days 8 (Base 50)    
Moisture  
Dew Point 42 °F    
Average Humidity 62    
Maximum Humidity 96    
Minimum Humidity 27    
Precipitation  
Precipitation 0.00 in 0.08 in 1.47 in (1967)
Month to date precipitation 2.11 0.66  
Year to date precipitation 33.70 29.12  
Sea Level Pressure  
Sea Level Pressure 29.95 in    
Wind  
Wind Speed 8 mph (West)    
Max Wind Speed 21 mph    
Max Gust Speed 30 mph    
Visibility 10 miles    
Events      
T = Trace of Precipitation, MM = Missing Value Source: NWS Daily Summary

Daily Weather History Graph

Daily Weather History Graph

Search for Another Location

Airport:

Trip Planner

Search our weather history database for the weather conditions in past years. The results will help you decide how hot, cold, wet, or windy it might be!

Date:

Astronomy

Oct. 07, 2013 Rise Set
Actual Time 7:10 AM CDT 6:37 PM CDT
Civil Twilight 6:42 AM CDT 7:05 PM CDT
Nautical Twilight 6:10 AM CDT 7:37 PM CDT
Astronomical Twilight 5:37 AM CDT 8:10 PM CDT
Moon 10:03 AM CDT (10/7) 8:19 PM CDT (10/7)
Length of Visible Light 12h 23m
Length of Day
11h 27m
Waxing Crescent, 9% of the Moon is Illuminated
Oct 7
Waxing Crescent
Oct 11
First Quarter
Oct 18
Full
Oct 26
Last Quarter
Nov 3
New

Hourly Weather History & Observations

Time (CDT) Temp. Windchill Dew Point Humidity Pressure Visibility Wind Dir Wind Speed Gust Speed Precip Events Conditions
12:40 AM 48.2 °F - 44.6 °F 87% 29.83 in - WNW 9.2 mph - N/A   Overcast
12:52 AM 48.0 °F - 46.0 °F 93% 29.84 in - WNW 10.4 mph - N/A   Overcast
1:52 AM 50.0 °F - 46.9 °F 89% 29.85 in - WNW 12.7 mph - N/A   Overcast
2:52 AM 50.0 °F - 46.0 °F 86% 29.86 in - NW 15.0 mph 20.7 mph N/A   Overcast
3:52 AM 48.9 °F - 45.0 °F 86% 29.87 in - NW 10.4 mph - 0.01 in   Mostly Cloudy
4:12 AM 48.2 °F - 44.6 °F 87% 29.87 in - NW 8.1 mph - N/A   Scattered Clouds
4:52 AM 46.0 °F 41.4 °F 44.1 °F 93% 29.90 in 10.0 mi WNW 9.2 mph - N/A   Clear
5:52 AM 44.1 °F 40.1 °F 42.1 °F 93% 29.92 in 10.0 mi West 6.9 mph - N/A   Clear
6:52 AM 42.1 °F 38.4 °F 39.9 °F 92% 29.94 in 10.0 mi West 5.8 mph - N/A   Clear
7:52 AM 43.0 °F 39.5 °F 41.0 °F 93% 29.97 in 10.0 mi West 5.8 mph - N/A   Clear
8:52 AM 48.9 °F - 43.0 °F 80% 29.98 in 10.0 mi West 5.8 mph - N/A   Clear
9:52 AM 53.1 °F - 43.0 °F 69% 30.00 in 10.0 mi West 5.8 mph - N/A   Clear
10:52 AM 60.1 °F - 44.1 °F 55% 29.99 in 10.0 mi SW 6.9 mph - N/A   Clear
11:52 AM 64.9 °F - 43.0 °F 45% 29.99 in 10.0 mi West 13.8 mph - N/A   Clear
12:52 PM 69.1 °F - 42.1 °F 38% 29.98 in 10.0 mi West 12.7 mph 21.9 mph N/A   Clear
1:52 PM 71.1 °F - 39.9 °F 32% 29.96 in 10.0 mi WNW 15.0 mph - N/A   Clear
2:52 PM 73.0 °F - 39.0 °F 29% 29.96 in 10.0 mi West 13.8 mph - N/A   Clear
3:52 PM 73.0 °F - 37.9 °F 28% 29.97 in 10.0 mi West 17.3 mph 21.9 mph N/A   Clear
4:52 PM 72.0 °F - 39.0 °F 30% 29.97 in 10.0 mi West 12.7 mph - N/A   Clear
5:52 PM 70.0 °F - 39.9 °F 33% 29.98 in 10.0 mi WSW 8.1 mph - N/A   Clear
6:52 PM 62.1 °F - 39.9 °F 44% 29.99 in 10.0 mi WSW 5.8 mph - N/A   Clear
7:52 PM 60.1 °F - 37.9 °F 44% 30.01 in 10.0 mi Calm Calm - N/A   Clear
8:52 PM 61.0 °F - 39.0 °F 44% 30.03 in 10.0 mi NW 3.5 mph - N/A   Clear
9:52 PM 55.9 °F - 39.0 °F 53% 30.04 in 10.0 mi Calm Calm - N/A   Clear
10:52 PM 51.1 °F - 39.9 °F 66% 30.05 in 10.0 mi Calm Calm - N/A   Clear
11:52 PM 48.9 °F - 39.0 °F 69% 30.06 in 10.0 mi SE 3.5 mph - N/A   Clear